sat.trackr.live / text

‹ back to catalog

XINZHENGCHENG-01

NORAD 68412 · 2026-066A

PAYLOAD ACTIVE UNKNOWN

§ Identity

Operator
Country
PRC
Launch date
2026-03-30
Launch site
JSC
Launch vehicle
Mass (kg)
RCS (m²)

External: N2YO · Heavens-Above · Gunter

§ Orbital elements

Epoch: 2026-09-20T03:43:12.990144Z

Period
96.74 min
Inclination
84.9709°
Eccentricity
0.0023320
Mean motion
14.88486036 rev/d
Perigee alt
586.4 km
Apogee alt
618.9 km
Semi-major
6,980.8 km
B*
3.0270e-5
RAAN
167.3482°
Arg perigee
283.4006°
Mean anomaly
76.4618°
Rev number
2,585

§ Raw data

XINZHENGCHENG-011 68412U 26066A   26263.15501146  .00000312  00000+0  30270-4 0  99942 68412  84.9709 167.3482 0023320 283.4006  76.4618 14.88486036 25854

JSON: /api/v1/satellites/68412 · /tle

For live sub-satellite position, see the globe view (requires WebGL).

§ Visibility from observer

Set your observer location to see the next 7 days of passes ≥ 10°. The values pass through the URL so the page stays shareable.

No JS? Fill the form by hand. The geolocation button needs JavaScript.